SCP
0 0 1 1 1 1 1 1 1 1 1 1 1 1 1 1 1 1 1 1 1 1 1 0 0 0 0 0 0 0 0 0 0 0 0 0 0 0 0 0 0 0 0
0 0 0 0 0 0 0 1 1 1 1 1 1 1 1 1 1 1 1 1 1 1 1 1 0 0 0 0 0 0 0 0 0 0 0 0 0 0 0 0 0 0 0
0 0 0 0 0 0 0 0 0 0 1 1 1 1 1 1 1 1 1 1 1 1 1 1 1 1 1 1 1 1 1 1 1 1 0 0 0 0 0 0 0 0 0
0 0 0 0 0 0 0 0 0 0 0 0 0 0 1 1 1 1 1 1 1 1 1 1 1 1 1 1 1 1 1 1 1 1 1 1 0 0 0 0 0 0 0
0 0 0 0 0 0 0 0 0 0 0 0 0 0 0 1 1 1 1 1 1 1 1 1 1 1 1 1 1 1 1 1 1 1 1 1 1 1 0 0 0 0 0
0 0 0 0 0 0 0 0 0 0 0 0 0 0 0 0 0 0 0 0 0 1 1 1 1 1 1 1 1 1 1 1 1 1 1 1 1 1 1 0 0 0 0
0 0 0 0 0 0 0 0 0 0 0 0 0 0 0 0 0 0 0 0 0 0 1 1 1 1 1 1 1 1 1 1 1 1 1 1 1 1 1 0 0 0 0
0 0 0 0 0 0 0 0 0 0 0 0 0 0 0 0 0 0 0 0 0 0 1 1 1 1 1 1 1 1 1 1 1 1 1 1 1 1 1 1 0 0 0
0 0 0 0 0 0 0 0 0 0 0 0 0 0 0 0 0 0 0 0 0 0 0 0 1 1 1 1 1 1 1 1 1 1 1 1 1 1 1 0 0 0 0
0 0 0 0 0 0 0 0 0 0 0 0 0 0 0 0 0 0 0 0 0 0 0 0 0 0 1 1 1 1 1 1 1 1 1 1 1 1 1 0 0 0 0
0 0 0 0 0 0 0 0 0 0 0 0 0 0 0 0 0 0 0 0 0 0 0 0 0 0 0 0 1 0 1 1 1 1 1 1 1 1 1 1 0 0 0
0 0 0 0 0 0 0 0 0 0 0 0 0 0 0 0 0 0 0 0 0 0 0 0 0 0 0 0 0 0 0 0 0 1 1 1 1 1 1 1 0 0 0
0 0 0 0 0 0 0 0 0 0 0 0 0 0 0 0 0 0 0 0 0 0 0 0 0 0 0 0 0 0 0 0 0 0 0 0 0 0 0 0 0 0 0
0 0 0 0 0 0 0 0 0 0 0 0 0 0 0 0 0 0 0 0 0 0 0 0 0 0 0 0 0 0 0 0 0 0 0 0 0 0 0 0 0 0 0
0 0 0 0 0 0 0 0 0 0 0 0 0 0 0 0 0 0 0 0 0 0 0 0 0 0 0 0 0 0 0 0 0 0 0 0 0 0 0 0 0 0 0
0 0 0 0 0 0 0 0 0 0 0 0 0 0 0 0 0 0 0 0 0 0 0 0 0 0 0 0 0 0 0 0 0 0 0 0 0 0 0 0 0 0 0
0 0 0 0 0 0 0 0 0 0 0 0 0 0 0 0 0 0 0 0 0 0 0 0 0 0 0 0 0 0 0 0 0 0 0 0 0 0 0 0 0 0 0
0 0 0 0 0 0 0 0 0 0 0 0 0 0 0 0 0 0 0 0 0 0 0 0 0 0 0 0 0 0 0 0 0 0 0 0 0 0 0 0 0 0 0
0 0 0 0 0 0 0 0 0 0 0 0 0 0 0 0 0 0 0 0 0 0 0 0 0 0 0 0 0 0 0 0 0 0 0 0 0 0 0 0 0 0 0
0 0 0 0 0 0 0 0 0 0 0 0 0 0 0 0 0 0 0 0 0 0 0 0 0 0 0 0 0 0 0 0 0 0 0 0 0 0 0 0 0 0 0
0 0 0 0 0 0 0 0 0 0 0 0 0 0 0 0 0 0 0 0 0 0 0 0 0 0 0 0 0 0 0 0 0 0 0 0 0 0 0 0 0 0 0
0 0 0 0 0 0 0 0 0 0 0 0 0 0 0 0 0 0 0 0 0 0 0 0 0 0 0 0 0 0 0 0 0 0 0 0 0 0 0 0 0 0 0
0 0 0 0 0 0 0 0 0 0 0 0 0 0 0 0 0 0 0 0 0 0 0 0 0 0 0 0 0 0 0 0 0 0 0 0 0 0 0 0 0 0 0
0 0 0 0 0 0 0 0 0 0 0 0 0 0 0 0 0 0 0 0 0 0 0 0 0 0 0 0 0 0 0 0 0 0 0 0 0 0 0 0 0 0 0
0 0 0 0 0 0 0 0 0 0 0 0 0 0 0 0 0 0 0 0 0 0 0 0 0 0 0 0 0 0 0 0 0 0 0 0 0 0 0 0 0 0 0
0 0 0 0 0 0 0 0 0 0 0 0 0 0 0 0 0 0 0 0 0 0 0 0 0 0 0 0 0 0 0 0 0 0 0 0 0 0 0 0 0 0 0
Wind_Speed
3 3 2 2 4 3 4 4 5 6 7 8 9 10 11 12 11 10 7 12 14 15 16 16 17 18 19 18 17 17 17 17 15 14 14 13 13 13 13 12 11 11 10
3 3 3 2 3 3 4 5 5 5 6 6 8 10 11 11 12 12 11 10 15 16 17 17 18 18 20 20 20 19 18 18 17 16 15 14 14 14 14 13 13 12 11
4 4 4 3 3 3 3 4 5 5 6 6 8 9 9 11 11 12 12 10 10 15 18 18 18 18 19 21 21 21 20 19 18 17 17 16 15 15 15 14 14 13 12
5 5 5 4 3 4 4 4 5 5 5 6 6 7 7 8 11 11 11 11 10 10 14 20 19 18 19 21 22 23 22 21 20 19 18 18 17 16 16 15 15 14 13
6 6 5 4 5 5 4 5 5 6 6 6 7 7 7 8 9 10 11 13 12 11 11 13 19 19 21 23 23 23 23 23 22 21 21 20 19 18 17 16 16 15 15
5 7 5 3 6 5 5 4 5 5 6 6 8 8 8 8 8 9 11 11 11 14 14 14 12 15 21 22 21 22 23 24 23 23 23 22 21 20 18 18 17 17 16
6 5 6 4 5 5 5 7 6 7 6 5 7 7 8 9 9 8 8 9 10 12 12 13 12 10 11 20 22 21 23 24 23 23 23 22 22 21 20 19 19 18 18
6 5 5 7 5 5 6 6 6 7 7 5 6 8 7 6 5 6 6 7 8 8 10 12 12 12 11 10 13 22 22 23 24 24 24 23 22 21 21 21 20 20 19
6 5 6 7 6 8 6 6 7 8 7 7 5 6 6 5 6 3 4 4 4 4 6 7 10 11 12 11 11 17 22 23 24 25 25 24 22 21 21 21 21 21 20
5 5 6 6 6 7 6 7 5 6 7 8 5 4 5 6 6 6 5 3 4 5 6 6 7 9 10 10 11 14 18 21 23 25 25 24 23 22 22 22 23 22 22
5 5 5 6 6 6 6 7 6 7 7 8 7 6 6 5 7 7 8 6 6 5 5 6 6 7 9 10 10 14 16 19 20 22 23 24 24 24 24 24 25 24 24
4 4 5 5 6 6 6 6 6 8 6 7 8 8 7 7 7 7 8 8 7 6 6 6 6 6 6 8 11 13 15 16 17 18 20 22 24 25 25 25 25 25 25
5 4 5 6 6 6 7 7 7 7 8 8 8 8 8 8 8 8 9 9 9 7 6 6 5 4 4 4 6 11 14 15 16 16 17 19 21 23 24 25 26 26 25
6 6 7 7 7 7 8 7 8 8 7 8 9 9 8 9 8 8 8 9 10 9 7 6 3 2 3 3 3 7 10 13 15 16 17 18 19 21 23 24 25 24 23
7 7 8 8 8 8 8 9 8 8 8 9 10 9 9 8 8 8 8 9 10 10 9 5 3 2 3 4 3 5 7 10 13 14 15 17 18 19 20 22 23 23 22
8 9 9 9 9 9 9 9 10 9 8 9 8 9 9 9 8 8 8 9 9 10 10 8 5 5 5 7 5 5 6 8 10 12 14 15 17 19 20 21 21 22 22
9 9 9 9 10 10 9 9 10 10 10 10 10 10 10 10 9 9 9 9 9 9 11 10 7 5 6 7 7 5 5 6 6 10 12 14 14 16 18 20 21 21 21
9 9 9 10 11 11 10 10 11 11 11 11 11 11 11 10 11 10 10 10 10 9 11 12 9 8 7 7 7 6 5 4 4 6 9 11 11 13 15 17 19 19 20
10 10 10 11 11 11 11 11 11 11 11 12 12 12 12 12 12 11 11 11 10 10 10 11 10 8 7 6 6 6 5 3 3 4 7 8 9 11 12 14 16 17 18
10 10 11 11 11 11 11 11 11 11 12 12 12 12 12 13 13 12 11 12 11 11 11 11 11 9 8 7 6 6 5 4 3 3 3 3 5 8 10 12 14 15 17
11 11 11 11 11 11 10 10 10 11 12 12 12 12 13 12 12 11 11 11 11 10 10 10 10 10 9 7 6 5 5 4 4 4 4 3 4 4 6 9 11 13 15
10 10 11 12 12 10 5 4 10 13 13 13 13 12 12 13 14 16 17 17 16 14 13 11 10 10 9 9 7 6 5 4 4 5 4 3 3 2 2 4 7 11 13
11 11 11 12 12 11 8 9 11 12 14 14 13 12 11 11 10 13 15 19 20 21 19 16 15 13 11 9 9 9 7 6 5 4 5 3 3 2 2 3 6 8 11
10 10 11 12 12 11 8 10 10 13 14 14 14 14 13 13 12 11 12 13 14 15 17 17 16 15 14 11 9 10 8 6 5 4 5 4 3 3 2 3 4 6 8
10 11 11 11 12 12 9 10 11 11 12 14 13 13 13 13 10 8 12 14 14 13 13 14 14 13 12 9 8 8 9 7 6 4 4 3 4 3 2 2 3 5 7
10 11 11 11 12 13 9 9 10 10 12 11 11 11 12 13 9 7 12 13 14 13 13 12 14 16 16 16 14 13 12 9 7 5 5 5 5 4 4 2 2 2 4
Wind_Direction
308 304 301 297 290 292 276 274 273 271 264 253 248 242 236 234 234 231 222 199 204 213 220 223 221 216 214 213 212 212 210 207 204 200 200 198 194 191 191 191 189 186 183
339 313 283 296 296 300 317 300 290 279 269 267 259 253 246 242 236 233 235 216 210 215 220 225 226 221 218 215 213 213 213 212 208 204 203 201 198 196 196 195 194 192 190
340 313 300 282 316 309 296 285 290 277 267 264 258 256 251 246 243 235 235 235 224 216 219 223 225 224 221 219 216 215 213 213 210 206 205 204 201 199 198 197 197 196 194
330 306 299 299 324 293 293 298 286 294 289 283 276 268 258 247 243 239 236 234 233 231 221 219 222 223 224 223 221 218 215 213 211 208 207 206 205 202 200 199 199 198 196
333 309 309 331 293 287 294 299 316 310 302 296 283 266 260 253 245 240 237 236 233 231 235 222 217 220 224 226 225 221 218 215 211 210 208 208 208 206 203 202 201 200 199
342 324 303 322 300 292 294 303 306 293 294 293 292 287 273 261 249 242 239 236 232 230 230 235 225 220 221 224 224 222 221 218 213 211 210 210 210 208 205 204 203 203 202
343 324 318 318 297 298 306 299 296 289 282 303 293 286 271 251 243 241 239 242 239 234 233 233 234 232 222 218 220 221 221 219 214 212 212 211 211 209 207 206 205 205 205
326 318 333 307 310 303 283 288 285 293 298 296 300 303 295 272 234 241 234 232 241 240 238 236 234 233 234 228 215 215 219 219 216 213 213 213 211 209 208 208 207 207 207
316 322 316 314 317 297 304 306 291 280 290 290 287 299 303 313 325 266 258 250 250 251 249 247 240 238 233 229 228 214 216 217 217 216 211 210 210 209 209 208 209 209 209
304 307 308 309 308 304 310 291 304 298 283 283 277 265 278 308 300 300 282 274 272 266 264 263 258 245 238 235 229 227 215 215 216 217 213 210 209 210 210 210 212 212 211
286 294 303 305 302 296 311 310 306 291 286 283 290 284 275 263 259 276 289 297 294 286 279 268 261 254 243 236 235 229 218 215 216 216 214 212 210 210 211 212 215 216 216
285 288 290 296 292 300 302 294 294 280 285 294 291 287 282 278 276 280 283 287 289 291 297 287 269 256 245 233 231 230 220 215 214 214 214 214 213 211 212 213 216 218 219
295 303 301 293 294 295 288 287 280 286 283 280 276 278 282 281 283 283 283 287 288 286 278 274 275 274 264 246 233 225 226 217 214 215 216 216 216 215 213 213 215 218 219
300 311 291 283 284 284 283 281 278 271 270 273 273 277 279 274 277 275 277 285 286 283 271 271 293 303 322 292 269 235 232 217 215 216 218 217 216 216 214 213 213 215 217
289 289 286 282 281 281 279 278 273 277 275 270 271 263 260 272 269 270 271 272 278 283 282 277 260 282 316 308 295 264 245 222 217 215 217 218 219 218 215 213 211 211 212
286 285 282 281 280 279 275 270 271 264 266 266 268 276 276 274 276 272 268 267 265 270 277 280 274 283 306 304 289 278 259 226 218 215 216 218 219 219 217 213 210 209 207
285 281 280 281 280 280 276 270 269 274 267 267 266 263 261 268 274 276 269 264 262 262 268 273 269 265 273 286 296 289 266 238 218 212 217 218 218 218 216 212 208 206 205
279 281 281 280 280 279 276 271 270 271 268 266 265 265 265 262 259 264 270 268 266 267 269 274 277 271 263 269 278 283 272 243 227 202 210 214 216 217 213 209 205 203 203
279 281 281 279 280 280 277 273 270 269 268 267 266 264 264 263 263 262 262 265 266 260 258 265 267 265 263 260 269 268 259 237 224 198 198 205 213 216 211 206 203 201 201
280 281 281 281 280 278 275 272 271 269 268 267 265 264 263 261 259 259 258 257 262 266 263 261 263 261 253 248 252 256 246 223 210 199 182 179 193 206 207 202 200 199 199
281 282 281 280 278 276 271 276 280 277 275 272 267 262 259 258 265 266 269 266 260 256 259 257 256 256 251 243 245 248 251 234 213 202 183 175 177 189 192 191 194 195 192
283 282 280 280 279 278 292 286 277 281 278 274 271 268 264 249 242 238 247 259 267 268 267 269 264 260 261 256 249 252 253 239 222 197 189 175 171 165 171 175 174 183 186
285 282 280 279 278 277 265 250 251 269 273 271 271 270 268 265 249 249 237 233 241 247 254 264 270 271 270 260 260 252 241 243 246 194 180 168 153 123 64 84 141 171 180
286 283 282 280 278 275 255 244 246 260 266 267 266 265 265 267 262 259 261 253 246 239 233 235 246 258 263 273 270 263 264 251 250 220 189 169 151 123 88 74 102 159 173
284 282 280 280 278 277 256 239 242 270 266 266 265 263 263 263 258 240 255 260 259 256 245 240 249 256 274 288 286 272 252 238 230 210 190 162 139 122 113 86 74 119 153
281 282 283 283 281 279 269 236 231 265 270 271 268 262 250 246 259 236 251 256 256 255 256 244 229 236 244 245 236 245 254 246 230 208 183 164 147 144 133 104 85 107 122